EZ58WZ EGPH-LSGG

Flight info

Callsign EZ58WZ
Flight time 1h 53m
Altitude 37000
Route GOSAM P600 FENIK L612 ELBUS DCT NAVSO DCT AKOMU DCT VAMEB UL612 HON DCT XAMAB DCT VEULE DCT PEKIM DCT PILUL/N0439F270 DCT PIMUP DCT PIXIS DCT PIBAT/N0414F230 DCT LUSAR
Aircraft A320/M-SDE3FGHIRWY/LB1

Departure

Time 2026-05-07 07:08
Airport Edinburgh Airport (EGPH)

Arrival

Time 2026-05-07 09:02
Airport Geneva International Airport (LSGG)
Time Latitude Longitude Altitude Speed Heading
2026-05-07 06:45 55.95014 -3.36027 116 ft 0 kts 244°
2026-05-07 07:01 55.95022 -3.35997 113 ft 4 kts 244°
2026-05-07 07:01 55.95034 -3.35956 112 ft 2 kts 243°
2026-05-07 07:02 55.95044 -3.35921 112 ft 4 kts 241°
2026-05-07 07:02 55.95054 -3.35879 112 ft 4 kts 271°
2026-05-07 07:02 55.95054 -3.35865 113 ft 3 kts 299°
2026-05-07 07:02 55.95067 -3.35907 114 ft 4 kts 298°
2026-05-07 07:03 55.95073 -3.35928 113 ft 0 kts 298°
2026-05-07 07:04 55.95074 -3.35930 113 ft 2 kts 298°
2026-05-07 07:05 55.95092 -3.35993 113 ft 8 kts 294°
2026-05-07 07:05 55.95109 -3.36084 115 ft 8 kts 288°
2026-05-07 07:05 55.95138 -3.36172 115 ft 11 kts 329°
2026-05-07 07:05 55.95199 -3.36093 115 ft 13 kts 59°
2026-05-07 07:06 55.95259 -3.35913 112 ft 20 kts 59°
2026-05-07 07:06 55.95333 -3.35696 115 ft 21 kts 58°
2026-05-07 07:06 55.95400 -3.35498 114 ft 17 kts 59°
2026-05-07 07:06 55.95464 -3.35404 114 ft 11 kts 347°
2026-05-07 07:07 55.95529 -3.35467 112 ft 11 kts 330°
2026-05-07 07:07 55.95565 -3.35507 112 ft 0 kts 327°
2026-05-07 07:07 55.95577 -3.35521 113 ft 3 kts 323°
2026-05-07 07:07 55.95560 -3.35598 113 ft 23 kts 236°
2026-05-07 07:08 55.95336 -3.36257 109 ft 97 kts 239°
2026-05-07 07:08 55.94882 -3.37578 115 ft 151 kts 237°
2026-05-07 07:08 55.94323 -3.39204 737 ft 152 kts 237°
2026-05-07 07:08 55.93778 -3.40815 1493 ft 154 kts 234°
2026-05-07 07:09 55.93177 -3.42535 1931 ft 172 kts 233°
2026-05-07 07:09 55.92516 -3.44434 2398 ft 188 kts 234°
2026-05-07 07:09 55.91785 -3.46512 2771 ft 212 kts 235°
2026-05-07 07:09 55.90978 -3.48878 3291 ft 232 kts 239°
2026-05-07 07:10 55.90383 -3.51625 4067 ft 245 kts 258°
2026-05-07 07:10 55.90146 -3.54666 5005 ft 249 kts 259°
2026-05-07 07:10 55.89849 -3.57733 5920 ft 253 kts 257°
2026-05-07 07:10 55.89525 -3.60796 6816 ft 256 kts 257°
2026-05-07 07:11 55.89189 -3.63939 7672 ft 260 kts 257°
2026-05-07 07:11 55.88852 -3.67129 8544 ft 264 kts 257°
2026-05-07 07:11 55.88514 -3.70373 9422 ft 267 kts 257°
2026-05-07 07:11 55.88174 -3.73660 10222 ft 273 kts 257°
2026-05-07 07:12 55.87817 -3.77124 10516 ft 296 kts 257°
2026-05-07 07:12 55.87431 -3.80879 10756 ft 320 kts 257°
2026-05-07 07:12 55.87025 -3.84899 11032 ft 338 kts 258°
2026-05-07 07:12 55.86610 -3.89068 11637 ft 345 kts 258°
2026-05-07 07:13 55.86191 -3.93300 12343 ft 349 kts 258°
2026-05-07 07:13 55.85766 -3.97585 13075 ft 353 kts 258°
2026-05-07 07:13 55.85336 -4.01912 13770 ft 358 kts 258°
2026-05-07 07:13 55.84898 -4.06290 14397 ft 361 kts 258°
2026-05-07 07:14 55.84305 -4.10632 15050 ft 362 kts 247°
2026-05-07 07:14 55.83017 -4.14464 15687 ft 363 kts 229°
2026-05-07 07:14 55.81093 -4.17381 16329 ft 366 kts 216°
2026-05-07 07:14 55.78986 -4.19951 16947 ft 368 kts 216°
2026-05-07 07:15 55.76842 -4.22466 17555 ft 372 kts 212°
2026-05-07 07:15 55.74494 -4.24295 18162 ft 379 kts 200°
2026-05-07 07:15 55.71848 -4.25241 18759 ft 387 kts 188°
2026-05-07 07:15 55.69167 -4.25122 19220 ft 397 kts 175°
2026-05-07 07:16 55.66467 -4.23869 19680 ft 406 kts 163°
2026-05-07 07:16 55.63887 -4.21723 20137 ft 413 kts 154°
2026-05-07 07:16 55.61376 -4.19211 20603 ft 416 kts 154°
2026-05-07 07:16 55.58835 -4.16702 21058 ft 419 kts 154°
2026-05-07 07:17 55.56272 -4.14196 21505 ft 423 kts 154°
2026-05-07 07:17 55.53690 -4.11687 21947 ft 426 kts 155°
2026-05-07 07:17 55.51079 -4.09165 22392 ft 429 kts 155°
2026-05-07 07:17 55.48448 -4.06626 22824 ft 432 kts 154°
2026-05-07 07:18 55.45801 -4.04065 23234 ft 435 kts 154°
2026-05-07 07:18 55.43144 -4.01482 23609 ft 438 kts 154°
2026-05-07 07:18 55.40467 -3.98878 23969 ft 440 kts 154°
2026-05-07 07:18 55.37777 -3.96267 24337 ft 443 kts 154°
2026-05-07 07:19 55.35068 -3.93646 24683 ft 445 kts 154°
2026-05-07 07:19 55.32351 -3.91023 25026 ft 447 kts 154°
2026-05-07 07:19 55.29617 -3.88393 25376 ft 449 kts 154°
2026-05-07 07:19 55.26908 -3.85792 25714 ft 451 kts 153°
2026-05-07 07:20 55.24142 -3.83145 26017 ft 454 kts 154°
2026-05-07 07:20 55.21361 -3.80502 26344 ft 456 kts 154°
2026-05-07 07:20 55.18539 -3.77951 26656 ft 457 kts 155°
2026-05-07 07:20 55.15685 -3.75486 26972 ft 458 kts 156°
2026-05-07 07:21 55.12804 -3.73067 27283 ft 460 kts 156°
2026-05-07 07:21 55.09910 -3.70658 27595 ft 462 kts 156°
2026-05-07 07:21 55.07006 -3.68228 27882 ft 464 kts 156°
2026-05-07 07:21 55.04102 -3.65773 28174 ft 466 kts 156°
2026-05-07 07:22 55.01186 -3.63288 28547 ft 465 kts 156°
2026-05-07 07:22 54.98284 -3.60805 28967 ft 464 kts 156°
2026-05-07 07:22 54.95391 -3.58325 29362 ft 463 kts 155°
2026-05-07 07:22 54.92505 -3.55859 29820 ft 462 kts 155°
2026-05-07 07:23 54.89621 -3.53406 30235 ft 460 kts 155°
2026-05-07 07:23 54.86745 -3.50968 30596 ft 459 kts 156°
2026-05-07 07:23 54.83879 -3.48546 30958 ft 458 kts 156°
2026-05-07 07:23 54.81018 -3.46136 31307 ft 457 kts 156°
2026-05-07 07:24 54.78158 -3.43728 31663 ft 456 kts 156°
2026-05-07 07:24 54.75310 -3.41327 32022 ft 455 kts 155°
2026-05-07 07:24 54.72470 -3.38933 32381 ft 454 kts 155°
2026-05-07 07:24 54.69630 -3.36547 32732 ft 453 kts 155°
2026-05-07 07:25 54.63956 -3.31803 33400 ft 452 kts 156°
2026-05-07 07:25 54.61130 -3.29446 33767 ft 451 kts 156°
2026-05-07 07:25 54.58308 -3.27096 34085 ft 451 kts 156°
2026-05-07 07:26 54.55487 -3.24750 34389 ft 450 kts 156°
2026-05-07 07:26 54.52709 -3.22440 34685 ft 449 kts 156°
2026-05-07 07:26 54.49900 -3.20109 34954 ft 449 kts 155°
2026-05-07 07:26 54.47083 -3.17772 35206 ft 449 kts 156°
2026-05-07 07:27 54.44268 -3.15437 35438 ft 449 kts 155°
2026-05-07 07:27 54.41463 -3.13114 35744 ft 447 kts 155°
2026-05-07 07:27 54.38662 -3.10795 36022 ft 446 kts 155°
2026-05-07 07:27 54.35867 -3.08493 36275 ft 445 kts 155°
2026-05-07 07:28 54.33074 -3.06200 36513 ft 445 kts 155°
2026-05-07 07:28 54.30283 -3.03910 36741 ft 445 kts 155°
2026-05-07 07:28 54.27489 -3.01621 36958 ft 445 kts 155°
2026-05-07 07:29 54.21888 -2.97046 37039 ft 448 kts 155°
2026-05-07 07:29 54.16268 -2.92471 37042 ft 447 kts 155°
2026-05-07 07:30 54.10572 -2.88190 37044 ft 447 kts 158°
2026-05-07 07:30 54.04825 -2.84139 37047 ft 447 kts 158°
2026-05-07 07:31 53.99087 -2.80059 37042 ft 447 kts 158°
2026-05-07 07:31 53.93366 -2.75918 37042 ft 447 kts 157°
2026-05-07 07:32 53.87649 -2.71761 37057 ft 446 kts 157°
2026-05-07 07:32 53.81939 -2.67636 37056 ft 446 kts 158°
2026-05-07 07:33 53.76226 -2.63549 37055 ft 446 kts 157°
2026-05-07 07:33 53.70505 -2.59468 37040 ft 446 kts 157°
2026-05-07 07:34 53.64790 -2.55384 37043 ft 446 kts 157°
2026-05-07 07:34 53.59063 -2.51312 37047 ft 446 kts 157°
2026-05-07 07:35 53.53340 -2.47260 37053 ft 446 kts 157°
2026-05-07 07:35 53.47619 -2.43222 37056 ft 446 kts 157°
2026-05-07 07:36 53.41892 -2.39174 37086 ft 447 kts 157°
2026-05-07 07:36 53.36157 -2.35137 37089 ft 446 kts 157°
2026-05-07 07:37 53.30431 -2.31128 37089 ft 446 kts 158°
2026-05-07 07:37 53.24704 -2.27129 37088 ft 446 kts 157°
2026-05-07 07:38 53.19011 -2.23164 37078 ft 446 kts 157°
2026-05-07 07:38 53.13282 -2.19184 37078 ft 446 kts 157°
2026-05-07 07:39 53.07544 -2.15208 37079 ft 447 kts 157°
2026-05-07 07:39 53.01806 -2.11236 37079 ft 447 kts 157°
2026-05-07 07:40 52.97031 -2.07945 37075 ft 446 kts 156°
2026-05-07 07:40 52.91293 -2.04009 37077 ft 446 kts 156°
2026-05-07 07:41 52.85557 -2.00088 37069 ft 446 kts 157°
2026-05-07 07:41 52.79815 -1.96159 37064 ft 446 kts 157°
2026-05-07 07:42 52.74071 -1.92246 37060 ft 447 kts 157°
2026-05-07 07:42 52.68319 -1.88341 37062 ft 447 kts 157°
2026-05-07 07:43 52.62564 -1.84448 37072 ft 448 kts 157°
2026-05-07 07:43 52.56800 -1.80562 37079 ft 448 kts 157°
2026-05-07 07:44 52.51029 -1.76669 37089 ft 449 kts 157°
2026-05-07 07:44 52.45248 -1.72782 37093 ft 449 kts 157°
2026-05-07 07:45 52.39469 -1.68912 37093 ft 449 kts 157°
2026-05-07 07:45 52.33812 -1.64642 37090 ft 447 kts 149°
2026-05-07 07:46 52.28422 -1.59547 37087 ft 447 kts 149°
2026-05-07 07:46 52.23034 -1.54452 37086 ft 448 kts 149°
2026-05-07 07:47 52.17637 -1.49381 37089 ft 448 kts 149°
2026-05-07 07:47 52.12233 -1.44328 37081 ft 448 kts 150°
2026-05-07 07:48 52.06811 -1.39285 37081 ft 449 kts 149°
2026-05-07 07:48 52.01421 -1.34279 37078 ft 449 kts 150°
2026-05-07 07:49 51.95995 -1.29230 37079 ft 450 kts 150°
2026-05-07 07:49 51.90563 -1.24190 37085 ft 450 kts 150°
2026-05-07 07:50 51.85117 -1.19164 37088 ft 450 kts 150°
2026-05-07 07:50 51.79673 -1.14150 37086 ft 450 kts 150°
2026-05-07 07:51 51.74228 -1.09151 37087 ft 451 kts 151°
2026-05-07 07:51 51.68778 -1.04163 37086 ft 451 kts 151°
2026-05-07 07:52 51.63316 -0.99196 37087 ft 451 kts 151°
2026-05-07 07:52 51.57859 -0.94234 37082 ft 451 kts 150°
2026-05-07 07:53 51.52390 -0.89248 37076 ft 452 kts 151°
2026-05-07 07:53 51.46934 -0.84302 37077 ft 452 kts 151°
2026-05-07 07:54 51.41450 -0.79362 37080 ft 452 kts 151°
2026-05-07 07:54 51.35956 -0.74424 37084 ft 453 kts 151°
2026-05-07 07:55 51.30459 -0.69494 37083 ft 453 kts 151°
2026-05-07 07:55 51.24964 -0.64574 37086 ft 453 kts 151°
2026-05-07 07:56 51.19459 -0.59668 37088 ft 453 kts 152°
2026-05-07 07:56 51.13951 -0.54761 37092 ft 454 kts 151°
2026-05-07 07:57 51.08439 -0.49857 37094 ft 454 kts 152°
2026-05-07 07:57 51.03017 -0.45051 37095 ft 454 kts 152°
2026-05-07 07:58 50.97502 -0.40189 37097 ft 454 kts 152°
2026-05-07 07:58 50.91979 -0.35343 37097 ft 454 kts 152°
2026-05-07 07:59 50.86454 -0.30490 37091 ft 453 kts 152°
2026-05-07 07:59 50.80942 -0.25653 37089 ft 453 kts 152°
2026-05-07 08:00 50.75420 -0.20827 37085 ft 453 kts 152°
2026-05-07 08:00 50.69895 -0.16016 37086 ft 453 kts 152°
2026-05-07 08:01 50.64369 -0.11217 37085 ft 453 kts 152°
2026-05-07 08:01 50.58842 -0.06433 37077 ft 453 kts 152°
2026-05-07 08:02 50.53312 -0.01665 37080 ft 453 kts 152°
2026-05-07 08:02 50.47779 0.03112 37072 ft 454 kts 152°
2026-05-07 08:03 50.42240 0.07872 37076 ft 454 kts 152°
2026-05-07 08:03 50.36693 0.12622 37074 ft 454 kts 153°
2026-05-07 08:04 50.31141 0.17356 37074 ft 455 kts 153°
2026-05-07 08:04 50.25590 0.22087 37078 ft 454 kts 153°
2026-05-07 08:05 50.20039 0.26824 37083 ft 455 kts 151°
2026-05-07 08:05 50.14699 0.32017 37077 ft 455 kts 147°
2026-05-07 08:06 50.09475 0.37606 37079 ft 456 kts 147°
2026-05-07 08:06 50.04225 0.43168 37083 ft 456 kts 147°
2026-05-07 08:07 49.98921 0.48595 37082 ft 457 kts 148°
2026-05-07 08:07 49.93589 0.53968 37075 ft 457 kts 148°
2026-05-07 08:08 49.88257 0.59350 37073 ft 457 kts 148°
2026-05-07 08:08 49.83277 0.65469 37073 ft 459 kts 137°
2026-05-07 08:09 49.78647 0.72257 37075 ft 459 kts 138°
2026-05-07 08:09 49.73986 0.79010 37069 ft 459 kts 138°
2026-05-07 08:10 49.69319 0.85737 37068 ft 459 kts 138°
2026-05-07 08:10 49.64651 0.92479 37069 ft 459 kts 138°
2026-05-07 08:11 49.59984 0.99199 37076 ft 459 kts 138°
2026-05-07 08:11 49.55307 1.05923 37082 ft 459 kts 138°
2026-05-07 08:12 49.50626 1.12620 37075 ft 459 kts 139°
2026-05-07 08:12 49.45943 1.19301 37080 ft 459 kts 139°
2026-05-07 08:13 49.41262 1.25985 37084 ft 460 kts 139°
2026-05-07 08:13 49.36575 1.32657 37086 ft 460 kts 139°
2026-05-07 08:14 49.31878 1.39306 37078 ft 460 kts 139°
2026-05-07 08:14 49.27165 1.45944 37070 ft 460 kts 139°
2026-05-07 08:15 49.22460 1.52568 37062 ft 460 kts 139°
2026-05-07 08:15 49.17749 1.59187 37066 ft 460 kts 139°
2026-05-07 08:16 49.13036 1.65797 37067 ft 460 kts 139°
2026-05-07 08:16 49.08322 1.72399 37069 ft 460 kts 139°
2026-05-07 08:17 49.03600 1.78978 37053 ft 460 kts 139°
2026-05-07 08:17 48.98868 1.85550 37050 ft 460 kts 139°
2026-05-07 08:18 48.94133 1.92108 37050 ft 460 kts 139°
2026-05-07 08:18 48.89399 1.98653 37052 ft 460 kts 139°
2026-05-07 08:19 48.84658 2.05195 37057 ft 460 kts 139°
2026-05-07 08:19 48.79917 2.11723 37059 ft 460 kts 139°
2026-05-07 08:20 48.75169 2.18231 37058 ft 460 kts 139°
2026-05-07 08:20 48.70437 2.24700 37056 ft 460 kts 139°
2026-05-07 08:21 48.65684 2.31190 37058 ft 460 kts 139°
2026-05-07 08:21 48.60922 2.37662 37051 ft 460 kts 139°
2026-05-07 08:22 48.56158 2.44130 37054 ft 461 kts 139°
2026-05-07 08:22 48.51384 2.50581 37054 ft 460 kts 139°
2026-05-07 08:23 48.47416 2.55937 37057 ft 461 kts 139°
2026-05-07 08:23 48.42646 2.62371 37053 ft 461 kts 139°
2026-05-07 08:24 48.37864 2.68804 37040 ft 461 kts 140°
2026-05-07 08:24 48.33078 2.75219 37044 ft 461 kts 140°
2026-05-07 08:25 48.28281 2.81620 37049 ft 461 kts 140°
2026-05-07 08:25 48.23347 2.87771 37050 ft 460 kts 143°
2026-05-07 08:26 48.15663 2.96421 37039 ft 460 kts 144°
2026-05-07 08:26 48.10553 3.02187 37045 ft 461 kts 144°
2026-05-07 08:27 48.05014 3.06909 37047 ft 458 kts 159°
2026-05-07 08:27 47.99149 3.10617 37048 ft 458 kts 159°
2026-05-07 08:28 47.93269 3.14295 37042 ft 458 kts 159°
2026-05-07 08:28 47.87383 3.17981 37046 ft 459 kts 159°
2026-05-07 08:29 47.81538 3.21646 37062 ft 459 kts 159°
2026-05-07 08:29 47.75649 3.25313 37056 ft 459 kts 159°
2026-05-07 08:30 47.69754 3.28992 37051 ft 459 kts 159°
2026-05-07 08:30 47.63865 3.32662 37049 ft 459 kts 159°
2026-05-07 08:31 47.57976 3.36310 37051 ft 459 kts 159°
2026-05-07 08:31 47.52078 3.39947 37033 ft 459 kts 159°
2026-05-07 08:32 47.46179 3.43596 37039 ft 460 kts 159°
2026-05-07 08:32 47.40264 3.47238 37032 ft 460 kts 159°
2026-05-07 08:33 47.34396 3.50838 37034 ft 460 kts 159°
2026-05-07 08:33 47.28481 3.54466 37024 ft 460 kts 160°
2026-05-07 08:34 47.22564 3.58077 37032 ft 460 kts 160°
2026-05-07 08:34 47.16644 3.61672 37036 ft 460 kts 160°
2026-05-07 08:35 47.10737 3.65274 37026 ft 460 kts 160°
2026-05-07 08:35 47.04818 3.68864 37025 ft 460 kts 160°
2026-05-07 08:36 46.99005 3.72648 37031 ft 462 kts 151°
2026-05-07 08:36 46.94114 3.78760 37021 ft 467 kts 130°
2026-05-07 08:37 46.90949 3.87040 37021 ft 470 kts 111°
2026-05-07 08:37 46.88606 3.95962 37002 ft 471 kts 112°
2026-05-07 08:38 46.86231 4.04902 37007 ft 472 kts 112°
2026-05-07 08:38 46.83839 4.13832 37012 ft 473 kts 112°
2026-05-07 08:39 46.81440 4.22780 37014 ft 473 kts 112°
2026-05-07 08:39 46.79714 4.32052 37015 ft 475 kts 102°
2026-05-07 08:40 46.78347 4.41485 37020 ft 475 kts 103°
2026-05-07 08:40 46.76961 4.50908 37029 ft 475 kts 103°
2026-05-07 08:41 46.75572 4.60329 37036 ft 475 kts 103°
2026-05-07 08:41 46.74173 4.69749 37037 ft 475 kts 103°
2026-05-07 08:42 46.72777 4.79092 37039 ft 475 kts 103°
2026-05-07 08:42 46.71351 4.88596 35973 ft 484 kts 103°
2026-05-07 08:43 46.70628 4.93404 35154 ft 487 kts 103°
2026-05-07 08:43 46.69913 4.98151 34232 ft 483 kts 103°
2026-05-07 08:43 46.69193 5.02907 33094 ft 477 kts 102°
2026-05-07 08:43 46.68478 5.07605 32103 ft 476 kts 102°
2026-05-07 08:44 46.67754 5.12326 31030 ft 481 kts 102°
2026-05-07 08:44 46.67019 5.17101 29847 ft 487 kts 102°
2026-05-07 08:44 46.66283 5.21910 28714 ft 487 kts 102°
2026-05-07 08:44 46.65551 5.26757 27531 ft 489 kts 102°
2026-05-07 08:45 46.64827 5.31585 26483 ft 488 kts 102°
2026-05-07 08:45 46.64103 5.36405 25454 ft 486 kts 102°
2026-05-07 08:45 46.63381 5.41185 24364 ft 477 kts 103°
2026-05-07 08:45 46.62679 5.45794 23536 ft 456 kts 103°
2026-05-07 08:46 46.62003 5.50201 22699 ft 437 kts 103°
2026-05-07 08:46 46.61336 5.54499 21975 ft 434 kts 103°
2026-05-07 08:46 46.60669 5.58763 21262 ft 431 kts 103°
2026-05-07 08:46 46.60003 5.62998 20564 ft 428 kts 103°
2026-05-07 08:47 46.59339 5.67205 19879 ft 426 kts 103°
2026-05-07 08:47 46.58680 5.71390 19208 ft 423 kts 103°
2026-05-07 08:47 46.57891 5.75502 18560 ft 425 kts 111°
2026-05-07 08:47 46.56611 5.79335 18002 ft 418 kts 122°
2026-05-07 08:48 46.54910 5.82723 17387 ft 412 kts 132°
2026-05-07 08:48 46.52867 5.85592 16795 ft 406 kts 142°
2026-05-07 08:48 46.50595 5.87965 16239 ft 400 kts 147°
2026-05-07 08:48 46.48332 5.90243 15953 ft 389 kts 147°
2026-05-07 08:49 46.46149 5.92440 15817 ft 375 kts 147°
2026-05-07 08:49 46.44040 5.94554 15694 ft 362 kts 147°
2026-05-07 08:49 46.42002 5.96594 15562 ft 350 kts 147°
2026-05-07 08:49 46.40032 5.98568 15418 ft 339 kts 147°
2026-05-07 08:50 46.38283 6.00775 15305 ft 331 kts 129°
2026-05-07 08:50 46.37217 6.03673 15055 ft 327 kts 106°
2026-05-07 08:50 46.36993 6.06911 14735 ft 325 kts 84°
2026-05-07 08:50 46.37649 6.10045 14267 ft 326 kts 59°
2026-05-07 08:51 46.39025 6.12584 13926 ft 317 kts 44°
2026-05-07 08:51 46.40562 6.14861 13232 ft 315 kts 44°
2026-05-07 08:51 46.42105 6.17114 12544 ft 313 kts 44°
2026-05-07 08:51 46.43631 6.19339 11883 ft 310 kts 44°
2026-05-07 08:52 46.45143 6.21547 11343 ft 309 kts 44°
2026-05-07 08:52 46.46622 6.23718 11046 ft 306 kts 44°
2026-05-07 08:52 46.48100 6.25902 10508 ft 302 kts 44°
2026-05-07 08:52 46.49564 6.28074 9842 ft 300 kts 44°
2026-05-07 08:53 46.50978 6.30171 9524 ft 288 kts 44°
2026-05-07 08:53 46.52198 6.32398 9374 ft 278 kts 65°
2026-05-07 08:53 46.52547 6.35072 9244 ft 267 kts 97°
2026-05-07 08:53 46.51936 6.37556 8893 ft 263 kts 129°
2026-05-07 08:54 46.50683 6.39436 8516 ft 261 kts 138°
2026-05-07 08:54 46.49383 6.41255 8124 ft 262 kts 137°
2026-05-07 08:54 46.47907 6.42778 7603 ft 262 kts 162°
2026-05-07 08:54 46.46122 6.42918 7159 ft 257 kts 197°
2026-05-07 08:55 46.44625 6.41674 6862 ft 243 kts 225°
2026-05-07 08:55 46.43471 6.39971 6563 ft 230 kts 227°
2026-05-07 08:55 46.42381 6.38329 6269 ft 222 kts 226°
2026-05-07 08:55 46.41324 6.36754 5975 ft 214 kts 227°
2026-05-07 08:56 46.40299 6.35234 5686 ft 207 kts 227°
2026-05-07 08:56 46.39305 6.33762 5397 ft 201 kts 226°
2026-05-07 08:56 46.38352 6.32350 5161 ft 191 kts 226°
2026-05-07 08:56 46.37443 6.31004 4902 ft 182 kts 226°
2026-05-07 08:57 46.36607 6.29769 4699 ft 167 kts 226°
2026-05-07 08:57 46.35824 6.28611 4464 ft 158 kts 226°
2026-05-07 08:57 46.35067 6.27487 4198 ft 153 kts 226°
2026-05-07 08:57 46.34335 6.26399 4012 ft 150 kts 226°
2026-05-07 08:58 46.33619 6.25331 3837 ft 147 kts 226°
2026-05-07 08:58 46.32897 6.24277 3612 ft 147 kts 225°
2026-05-07 08:58 46.32181 6.23225 3444 ft 147 kts 225°
2026-05-07 08:58 46.31464 6.22170 3247 ft 146 kts 225°
2026-05-07 08:59 46.30758 6.21117 3052 ft 146 kts 225°
2026-05-07 08:59 46.30045 6.20070 2831 ft 147 kts 226°
2026-05-07 08:59 46.29332 6.19016 2640 ft 146 kts 226°
2026-05-07 08:59 46.28614 6.17960 2416 ft 147 kts 225°
2026-05-07 09:00 46.27893 6.16897 2212 ft 149 kts 226°
2026-05-07 09:00 46.27175 6.15820 2014 ft 149 kts 225°
2026-05-07 09:00 46.26450 6.14771 1807 ft 149 kts 224°
2026-05-07 09:00 46.25728 6.13707 1623 ft 148 kts 225°
2026-05-07 09:01 46.25016 6.12667 1418 ft 147 kts 225°
2026-05-07 09:01 46.24341 6.11681 1372 ft 125 kts 225°
2026-05-07 09:01 46.23854 6.10964 1378 ft 76 kts 225°
2026-05-07 09:01 46.23527 6.10485 1385 ft 61 kts 225°
2026-05-07 09:02 46.23291 6.10165 1400 ft 34 kts 209°
2026-05-07 09:02 46.23115 6.10091 1398 ft 17 kts 168°
2026-05-07 09:02 46.23116 6.10215 1399 ft 17 kts 44°
2026-05-07 09:02 46.23201 6.10352 1393 ft 20 kts 46°
2026-05-07 09:03 46.23293 6.10490 1398 ft 20 kts 45°
2026-05-07 09:03 46.23400 6.10640 1402 ft 22 kts 43°
2026-05-07 09:03 46.23492 6.10767 1389 ft 17 kts 46°
2026-05-07 09:03 46.23581 6.10897 1388 ft 17 kts 45°
2026-05-07 09:04 46.23587 6.10905 1388 ft 0 kts 45°
2026-05-07 09:04 46.23587 6.10906 1388 ft 1 kts 45°
2026-05-07 09:04 46.23603 6.10932 1388 ft 3 kts 57°
2026-05-07 09:05 46.23580 6.10985 1399 ft 10 kts 138°
2026-05-07 09:05 46.23560 6.11012 1400 ft 0 kts 137°
2026-05-07 09:08 46.24558 6.12002 1361 ft 1 kts 233°